Regional Weather Roundup
Issued by NWS Midland/Odessa, TX

Home | Current Version | Previous Version | Text Only | Print | Product List | Glossary On
Versions: 1 2 3 4 5 6 7 8 9 10 11 12 13 14 15 16 17 18 19 20 21 22 23 24 25 26 27 28 29 30 31 32 33 34 35 36 37 38 39 40 41 42 43 44 45 46 47 48 49 50
000
ASUS44 KMAF 242110
RWRMAF
MIDLAND AREA WEATHER ROUNDUP
NATIONAL WEATHER SERVICE MIDLAND TX
300 PM CST MON NOV 24 2014

...IN SOUTHWEST TEXAS AND SOUTHEAST NEW MEXICO...

CITY           SKY/WX    TMP DP  RH WIND       PRES   REMARKS
ALPINE         SUNNY     56   6  13 W3        30.11F
ANDREWS        FAIR      54  13  19 NW10      30.03F
ARTESIA        NOT AVBL
BIG SPRING     SUNNY     56  26  31 W5        30.06F
CARLSBAD       SUNNY     59   4  11 S10       30.00F
DRYDEN           N/A     64  11  12 N6        30.02F
FORT STOCKTON  SUNNY     56   8  14 NW14G20   30.05F
GUAD PASS      SUNNY     52  -7   8 W38G46    30.02F
HOBBS          SUNNY     55   3  12 W16       30.03F
MARFA          SUNNY     52   3  14 W18       30.09S
MIDLAND AIRPK  SUNNY     55  27  33 N5        30.04F
MIDLAND INTL   SUNNY     55  25  31 CALM      30.03F
ODESSA         SUNNY     56  18  22 NW9       30.03F
PECOS          SUNNY     57  10  15 NW5       30.05F
PRESIDIO       FAIR      62   5  10 W16G22    30.07S
SEMINOLE       SUNNY     54  11  17 W8        30.04S
SNYDER         SUNNY     54  26  34 W5        30.05S
WINK           SUNNY     60   0   9 NW10      30.02F
$$
...OTHER STATIONS IN TEXAS...

CITY           SKY/WX    TMP DP  RH WIND       PRES   REMARKS
ABILENE        MOSUNNY   58  25  28 SW13      30.06S
AMARILLO       MOSUNNY   50   6  16 MISG      30.01S
AUSTIN         MOSUNNY   65  23  20 N10       30.04F
BROWNSVILLE    PTSUNNY   65  46  50 N13G21    30.00F
CORPUS CHRISTI MOSUNNY   68  37  32 N13       30.02S
DALLAS FTW     PTSUNNY   59  24  26 W6        30.04F
DEL RIO        SUNNY     66  26  22 MISG      30.03F
EL PASO        MOSUNNY   56  -7   7 W16       30.07F
HOUSTON INT    MOSUNNY   66  31  27 NW12G21   30.02S
LUBBOCK        MOSUNNY   54  16  22 MISG      30.00F
SAN ANGELO     MOSUNNY   60  19  20 SW9       30.04F
SAN ANTONIO    MOSUNNY   66  27  23 N8        30.04F
WACO           PTSUNNY   62  25  24 N7        30.06F
WICHITA FALLS  NOT AVBL
$$
...OTHER LOCATIONS IN NEW MEXICO...

CITY           SKY/WX    TMP DP  RH WIND       PRES   REMARKS
ALAMAGORDO     MOSUNNY   52   0  11 N14       30.10F
ALBUQUERQUE    PTSUNNY   45   6  20 NW17G32   30.09F WCI  38
CANNON AFB     PTSUNNY   48   1  14 N8        29.99S
CLOVIS         PTSUNNY   48   3  15 NW7       30.00R
HOLLOMAN AFB   MOSUNNY   53   0  11 N10       30.08F
ROSWELL        SUNNY     59   4  11 NW20G26   29.99F
RUIDOSO        SUNNY     39   0  19 NW21G36   30.06R WCI  29
SANTA FE       MOSUNNY   38   7  27 NE7       30.04F WCI  33
TRUTH OR CONSE SUNNY     51  -2  11 CALM      30.06F
TUCUMCARI      PTSUNNY   46  13  26 SW7       29.99F
$$


USA.gov is the U.S. government's official web portal to all federal, state and local government web resources and services.